GW7226 Weather Reports


time (UTC)temp
C
wind
direction
speed
KPH
gust
KPH
rain 1hr
cm
rain 24hr
cm
rain mn
cm
humidity
%
barometer
mb
20260905043730 20 338 3.2 8.0 0.00 0.00 0.00 62 1010.6
20260905043231 20 317 3.2 8.0 0.00 0.00 0.00 61 1010.6
20260905042728 20 321 3.2 8.0 0.00 0.00 0.00 60 1010.5
20260905042231 20 322 1.6 6.4 0.00 0.00 0.00 60 1010.4
20260905041729 20 327 3.2 6.4 0.00 0.00 0.00 60 1010.4
20260905041230 20 330 3.2 6.4 0.00 0.00 0.00 58 1010.4
20260905040729 20 316 3.2 6.4 0.00 0.00 0.00 58 1010.3
20260905040230 21 300 1.6 6.4 0.00 0.00 0.00 56 1010.2
20260905035732 21 5 1.6 6.4 0.00 0.00 0.00 56 1010.2
20260905035231 21 5 1.6 6.4 0.00 0.00 0.00 55 1010.2
20260905034725 21 312 1.6 6.4 0.00 0.00 0.00 55 1009.9
20260905034219 21 318 1.6 4.8 0.00 0.00 0.00 55 1009.8
20260905033713 21 327 1.6 6.4 0.00 0.00 0.00 54 1009.7
20260905033210 21 309 3.2 6.4 0.00 0.00 0.00 54 1009.7
20260905032710 21 290 3.2 6.4 0.00 0.00 0.00 54 1009.7
20260905032511 22 306 1.6 6.4 0.00 0.00 0.00 54 1009.6
20260905031711 22 304 1.6 4.8 0.00 0.00 0.00 54 1009.4
20260905031209 22 298 1.6 6.4 0.00 0.00 0.00 53 1009.5
20260905030707 22 315 1.6 6.4 0.00 0.00 0.00 53 1009.4
20260905030207 22 319 1.6 4.8 0.00 0.00 0.00 52 1009.3
20260905025708 22 325 1.6 4.8 0.00 0.00 0.00 52 1009.4
20260905025206 22 325 1.6 4.8 0.00 0.00 0.00 51 1009.4
20260905024708 23 348 0.0 3.2 0.00 0.00 0.00 52 1009.4
20260905024459 23 330 1.6 6.4 0.00 0.00 0.00 51 1009.3
20260905023707 23 5 1.6 6.4 0.00 0.00 0.00 50 1009.2
20260905023204 23 348 1.6 6.4 0.00 0.00 0.00 49 1009.1
20260905022704 24 32 1.6 8.0 0.00 0.00 0.00 48 1009.1
20260905022204 24 355 1.6 8.0 0.00 0.00 0.00 48 1009.1
20260905021702 25 348 1.6 8.0 0.00 0.00 0.00 47 1009.3
20260905021202 25 340 1.6 8.0 0.00 0.00 0.00 47 1009.3
20260905020701 25 342 3.2 8.0 0.00 0.00 0.00 46 1009.1
20260905020505 25 19 3.2 8.0 0.00 0.00 0.00 45 1009.1
20260905015955 26 0 1.6 9.7 0.00 0.00 0.00 44 1009.0
20260905015149 26 309 1.6 9.7 0.00 0.00 0.00 44 1009.1
20260905014643 26 327 3.2 9.7 0.00 0.00 0.00 43 1009.1
20260905014137 26 0 3.2 9.7 0.00 0.00 0.00 44 1009.1
20260905013630 26 5 3.2 11.3 0.00 0.00 0.00 43 1009.1
20260905013130 26 327 3.2 11.3 0.00 0.00 0.00 42 1009.1
20260905012630 26 320 3.2 9.7 0.00 0.00 0.00 40 1009.1
20260905012431 27 326 3.2 9.7 0.00 0.00 0.00 39 1009.0
20260905011630 27 297 3.2 9.7 0.00 0.00 0.00 38 1009.0
20260905011131 27 316 3.2 12.9 0.00 0.00 0.00 37 1009.1
20260905010631 27 332 3.2 12.9 0.00 0.00 0.00 37 1009.1
20260905010132 28 283 3.2 11.3 0.00 0.00 0.00 37 1009.1
20260905005933 28 333 3.2 12.9 0.00 0.00 0.00 36 1009.1
20260905005129 28 305 3.2 12.9 0.00 0.00 0.00 35 1009.0
20260905004630 28 346 3.2 12.9 0.00 0.00 0.00 37 1008.9
20260905004130 28 5 4.8 12.9 0.00 0.00 0.00 36 1009.0
20260905003630 28 335 4.8 12.9 0.00 0.00 0.00 35 1008.8
20260905003130 28 298 3.2 12.9 0.00 0.00 0.00 36 1008.9
20260905002631 29 304 4.8 12.9 0.00 0.00 0.00 35 1009.0
20260905002130 29 338 4.8 12.9 0.00 0.00 0.00 36 1009.0
20260905001629 29 309 4.8 12.9 0.00 0.00 0.00 35 1008.9
20260905001130 29 313 4.8 14.5 0.00 0.00 0.00 35 1009.0
20260905000625 29 311 4.8 14.5 0.00 0.00 0.00 38 1009.0
20260905000119 29 310 4.8 14.5 0.00 0.00 0.00 35 1009.1
20260904235613 29 323 3.2 14.5 0.00 0.00 0.00 34 1009.1
20260904235110 29 287 4.8 14.5 0.00 0.00 0.00 36 1009.1
20260904234610 29 310 4.8 14.5 0.00 0.00 0.00 37 1009.3
20260904234108 29 288 6.4 14.5 0.00 0.00 0.00 35 1009.3
20260904233608 29 278 4.8 14.5 0.00 0.00 0.00 35 1009.3
20260904233109 28 257 3.2 14.5 0.00 0.00 0.00 37 1009.3
20260904232607 28 327 3.2 14.5 0.00 0.00 0.00 39 1009.2
20260904232108 28 289 4.8 14.5 0.00 0.00 0.00 40 1009.2
20260904231608 28 326 6.4 14.5 0.00 0.00 0.00 41 1009.3
20260904231208 29 260 4.8 16.1 0.00 0.00 0.00 37 1009.3
20260904231147 28 288 4.8 14.5 0.00 0.00 0.00 36 1009.3
20260904230109 28 300 4.8 16.1 0.00 0.00 0.00 38 1009.3
20260904225608 28 283 4.8 16.1 0.00 0.00 0.00 40 1009.4
20260904225110 29 293 4.8 16.1 0.00 0.00 0.00 37 1009.5
20260904224608 29 309 3.2 11.3 0.00 0.00 0.00 39 1009.5
20260904224107 29 355 4.8 16.1 0.00 0.00 0.00 39 1009.6
20260904223607 29 273 4.8 16.1 0.00 0.00 0.00 40 1009.8
20260904223108 29 296 1.6 12.9 0.00 0.00 0.00 43 1009.8
20260904222608 28 321 3.2 12.9 0.00 0.00 0.00 45 1009.7
20260904222108 28 319 3.2 12.9 0.00 0.00 0.00 42 1009.8
20260904221917 28 13 3.2 11.3 0.00 0.00 0.00 42 1009.8
20260904221107 28 331 1.6 11.3 0.00 0.00 0.00 41 1009.7
20260904220609 28 275 3.2 11.3 0.00 0.00 0.00 42 1009.8
20260904220109 28 240 1.6 11.3 0.00 0.00 0.00 40 1010.0
20260904215608 27 286 1.6 11.3 0.00 0.00 0.00 43 1009.9
20260904215107 27 181 3.2 11.3 0.00 0.00 0.00 47 1009.9
20260904214904 27 290 1.6 11.3 0.00 0.00 0.00 44 1009.9
20260904214107 27 199 1.6 11.3 0.00 0.00 0.00 40 1009.8
20260904213608 28 254 3.2 11.3 0.00 0.00 0.00 42 1009.9
20260904213105 28 232 3.2 11.3 0.00 0.00 0.00 40 1010.0
20260904212602 28 5 3.2 11.3 0.00 0.00 0.00 43 1010.0
20260904212413 28 298 3.2 11.3 0.00 0.00 0.00 45 1010.0
20260904211557 28 327 1.6 8.0 0.00 0.00 0.00 43 1010.2
20260904211050 27 66 0.0 8.0 0.00 0.00 0.00 50 1010.0
20260904210544 27 330 1.6 8.0 0.00 0.00 0.00 53 1010.0
20260904210336 26 287 1.6 6.4 0.00 0.00 0.00 46 1010.0
20260904205531 26 312 3.2 17.7 0.00 0.00 0.00 47 1010.2
20260904205032 26 273 3.2 17.7 0.00 0.00 0.00 43 1010.2
20260904204532 26 275 3.2 17.7 0.00 0.00 0.00 46 1010.2
20260904204033 26 240 1.6 17.7 0.00 0.00 0.00 45 1010.3
20260904203531 26 133 3.2 9.7 0.00 0.00 0.00 47 1010.3
20260904203031 27 329 4.8 9.7 0.00 0.00 0.00 43 1010.3
20260904202532 27 350 4.8 11.3 0.00 0.00 0.00 43 1010.3
20260904202033 26 293 3.2 11.3 0.00 0.00 0.00 46 1010.2
20260904201534 26 355 1.6 8.0 0.00 0.00 0.00 49 1010.3
20260904201033 26 5 1.6 11.3 0.00 0.00 0.00 54 1010.1
20260904200533 25 308 1.6 11.3 0.00 0.00 0.00 47 1010.3
20260904200033 25 327 3.2 11.3 0.00 0.00 0.00 49 1010.2
20260904195532 25 344 3.2 11.3 0.00 0.00 0.00 47 1010.3
20260904195032 25 308 1.6 9.7 0.00 0.00 0.00 48 1010.5
20260904194830 25 252 1.6 8.0 0.00 0.00 0.00 54 1010.5
20260904194031 25 346 1.6 9.7 0.00 0.00 0.00 49 1010.5
20260904193531 24 355 3.2 9.7 0.00 0.00 0.00 51 1010.6
20260904193028 24 292 3.2 9.7 0.00 0.00 0.00 49 1010.6
20260904192919 24 328 4.8 14.5 0.00 0.00 0.00 49 1010.7
20260904192600 24 282 3.2 9.7 0.00 0.00 0.00 50 1010.6
20260904191511 23 0 3.2 14.5 0.00 0.00 0.00 52 1010.6
20260904191009 23 283 3.2 14.5 0.00 0.00 0.00 53 1010.6
20260904190752 23 286 3.2 14.5 0.00 0.00 0.00 53 1010.6
20260904190011 23 306 3.2 9.7 0.00 0.00 0.00 54 1010.7
20260904185507 23 319 3.2 9.7 0.00 0.00 0.00 52 1010.7
20260904185007 23 313 3.2 14.5 0.00 0.00 0.00 51 1010.8
20260904184508 23 284 4.8 14.5 0.00 0.00 0.00 50 1010.9
20260904184006 23 263 4.8 14.5 0.00 0.00 0.00 52 1010.8
20260904183503 23 304 4.8 14.5 0.00 0.00 0.00 52 1010.9
20260904183005 23 281 3.2 11.3 0.00 0.00 0.00 54 1010.8
20260904182502 23 342 1.6 6.4 0.00 0.00 0.00 57 1010.8
20260904182001 22 18 1.6 6.4 0.00 0.00 0.00 60 1010.8
20260904181502 22 288 1.6 6.4 0.00 0.00 0.00 60 1010.7
20260904181001 22 0 1.6 8.0 0.00 0.00 0.00 62 1010.8
20260904180503 22 90 1.6 8.0 0.00 0.00 0.00 63 1010.8
20260904180001 22 56 1.6 9.7 0.00 0.00 0.00 61 1010.9
20260904175502 22 336 3.2 14.5 0.00 0.00 0.00 58 1010.9
20260904175001 21 304 3.2 14.5 0.00 0.00 0.00 58 1010.8
20260904174503 21 355 3.2 8.0 0.00 0.00 0.00 61 1010.9
20260904174001 21 32 3.2 8.0 0.00 0.00 0.00 63 1010.9
20260904173500 21 346 3.2 8.0 0.00 0.00 0.00 64 1010.9
20260904173001 21 17 3.2 8.0 0.00 0.00 0.00 63 1010.8
20260904172503 20 293 3.2 9.7 0.00 0.00 0.00 65 1010.8
20260904172306 20 319 1.6 9.7 0.00 0.00 0.00 67 1010.7
20260904171502 20 5 3.2 11.3 0.00 0.00 0.00 68 1010.8
20260904171003 20 12 3.2 11.3 0.00 0.00 0.00 68 1010.7
20260904170502 19 331 3.2 9.7 0.00 0.00 0.00 66 1010.9
20260904170004 19 294 1.6 9.7 0.00 0.00 0.00 68 1010.7
20260904165503 19 321 3.2 8.0 0.00 0.00 0.00 67 1010.9
20260904165305 19 21 3.2 8.0 0.00 0.00 0.00 69 1010.8
20260904164803 19 288 3.2 8.0 0.00 0.00 0.00 68 1010.7
20260904164001 19 301 3.2 8.0 0.00 0.00 0.00 68 1010.8
20260904163501 19 290 1.6 8.0 0.00 0.00 0.00 70 1010.6
20260904163308 18 355 3.2 8.0 0.00 0.00 0.00 73 1010.6
20260904162502 18 312 3.2 8.0 0.00 0.00 0.00 71 1010.5
20260904162002 18 325 3.2 8.0 0.00 0.00 0.00 72 1010.6
20260904161501 18 298 3.2 6.4 0.00 0.00 0.00 73 1010.6
20260904161307 18 9 3.2 8.0 0.00 0.00 0.00 73 1010.5
20260904160502 18 5 1.6 8.0 0.00 0.00 0.00 74 1010.6
20260904160003 18 309 1.6 8.0 0.00 0.00 0.00 75 1010.4
20260904155501 18 351 1.6 8.0 0.00 0.00 0.00 76 1010.5
20260904155301 18 342 1.6 4.8 0.00 0.00 0.00 77 1010.4
20260904154756 18 355 1.6 4.8 0.00 0.00 0.00 78 1010.4
20260904154304 18 0 1.6 4.8 0.00 0.00 0.00 79 1010.3
20260904153502 18 350 0.0 4.8 0.00 0.00 0.00 80 1010.4
20260904153002 18 348 0.0 4.8 0.00 0.00 0.00 80 1010.6
20260904152503 18 348 1.6 4.8 0.00 0.00 0.00 80 1010.4
20260904152108 17 342 0.0 4.8 0.00 0.00 0.00 81 1010.5
20260904152044 17 348 1.6 4.8 0.00 0.00 0.00 81 1010.4
20260904151001 17 17 0.0 3.2 0.00 0.00 0.00 81 1010.3
20260904150502 17 11 0.0 3.2 0.00 0.00 0.00 82 1010.2
20260904150004 17 12 0.0 3.2 0.00 0.00 0.00 82 1010.2
20260904145503 17 5 0.0 3.2 0.00 0.00 0.00 83 1010.2
20260904145001 17 5 0.0 1.6 0.00 0.00 0.00 83 1010.2
20260904144757 17 9 0.0 1.6 0.00 0.00 0.00 83 1010.1
20260904144258 17 9 0.0 1.6 0.00 0.00 0.00 83 1010.1
20260904143502 17 9 0.0 1.6 0.00 0.00 0.00 84 1010.0
20260904143001 17 9 0.0 1.6 0.00 0.00 0.00 84 1009.9
20260904142758 17 9 0.0 1.6 0.00 0.00 0.00 84 1009.8
20260904142000 17 9 0.0 1.6 0.00 0.00 0.00 84 1009.8
20260904141501 17 5 0.0 3.2 0.00 0.00 0.00 83 1009.7
20260904141004 17 5 0.0 3.2 0.00 0.00 0.00 83 1009.8
20260904140504 17 5 0.0 3.2 0.00 0.00 0.00 82 1009.7
20260904140001 17 5 0.0 3.2 0.00 0.00 0.00 82 1009.8
20260904135755 17 355 0.0 1.6 0.00 0.00 0.00 83 1009.7
20260904135002 17 346 0.0 1.6 0.00 0.00 0.00 82 1009.6
20260904134459 17 346 0.0 3.2 0.00 0.00 0.00 82 1009.5
20260904134319 17 346 0.0 3.2 0.00 0.00 0.00 82 1009.6
20260904133748 17 344 0.0 3.2 0.00 0.00 0.00 82 1009.5
20260904132954 17 348 0.0 3.2 0.00 0.00 0.00 83 1009.4
20260904132453 17 348 0.0 3.2 0.00 0.00 0.00 82 1009.4
20260904131950 17 331 0.0 1.6 0.00 0.00 0.00 83 1009.5
20260904131450 17 331 0.0 1.6 0.00 0.00 0.00 82 1009.4
20260904130948 17 331 0.0 3.2 0.00 0.00 0.00 82 1009.3
20260904130448 17 331 0.0 3.2 0.00 0.00 0.00 83 1009.3
20260904125948 17 331 0.0 3.2 0.00 0.00 0.00 82 1009.3
20260904125447 17 331 0.0 4.8 0.00 0.00 0.00 83 1009.3
20260904124944 17 331 0.0 4.8 0.00 0.00 0.00 82 1009.2
20260904124443 17 331 1.6 4.8 0.00 0.00 0.00 82 1009.0
20260904123943 17 331 1.6 4.8 0.00 0.00 0.00 82 1009.0
20260904123438 17 324 1.6 3.2 0.00 0.00 0.00 83 1009.1
20260904122938 17 323 1.6 3.2 0.00 0.00 0.00 82 1009.2
20260904122436 17 323 1.6 3.2 0.00 0.00 0.00 82 1009.1
20260904121934 17 325 1.6 3.2 0.00 0.00 0.00 83 1009.3
20260904121432 17 321 1.6 4.8 0.00 0.00 0.00 83 1009.1
20260904120932 17 331 1.6 4.8 0.00 0.00 0.00 83 1009.1
20260904120430 17 331 1.6 4.8 0.00 0.00 0.00 83 1009.1
20260904115933 17 324 1.6 4.8 0.00 0.00 0.00 83 1009.1
20260904115736 17 336 1.6 4.8 0.00 0.00 0.00 83 1009.0
20260904114930 17 340 1.6 4.8 0.00 0.00 0.00 84 1009.0
20260904114431 17 329 1.6 4.8 0.00 0.00 0.00 84 1009.0
20260904113931 17 340 1.6 4.8 0.00 0.00 0.00 85 1008.9
20260904113430 17 350 1.6 3.2 0.00 0.00 0.00 86 1008.9
20260904112931 17 21 0.0 3.2 0.00 0.00 0.00 85 1009.0
20260904112430 17 350 0.0 3.2 0.00 0.00 0.00 85 1008.9
20260904111930 17 350 1.6 6.4 0.00 0.00 0.00 84 1008.9
20260904111429 17 344 1.6 6.4 0.00 0.00 0.00 84 1008.9
20260904110929 17 318 3.2 6.4 0.00 0.00 0.00 83 1008.9
20260904110430 17 323 3.2 6.4 0.00 0.00 0.00 82 1008.9
20260904105929 17 336 3.2 6.4 0.00 0.00 0.00 81 1008.9
20260904105429 17 296 1.6 6.4 0.00 0.00 0.00 82 1008.8
20260904104933 17 343 1.6 4.8 0.00 0.00 0.00 82 1008.7
20260904104430 17 325 1.6 4.8 0.00 0.00 0.00 82 1008.7
20260904104230 17 303 1.6 4.8 0.00 0.00 0.00 83 1008.7
20260904103432 17 312 1.6 4.8 0.00 0.00 0.00 83 1008.5
20260904102931 17 313 1.6 4.8 0.00 0.00 0.00 83 1008.6
20260904102730 17 320 1.6 4.8 0.00 0.00 0.00 83 1008.5
20260904101929 17 323 0.0 4.8 0.00 0.00 0.00 84 1008.5
20260904101726 17 325 0.0 3.2 0.00 0.00 0.00 86 1008.4
20260904100929 17 315 0.0 3.2 0.00 0.00 0.00 87 1008.4
20260904100430 17 316 0.0 3.2 0.00 0.00 0.00 87 1008.2
20260904095929 17 315 0.0 3.2 0.00 0.00 0.00 87 1008.3
20260904095431 17 315 0.0 3.2 0.00 0.00 0.00 87 1008.1
20260904094928 17 319 1.6 3.2 0.00 0.00 0.00 87 1008.2
20260904094427 17 311 1.6 4.8 0.00 0.00 0.00 87 1008.3
20260904093928 17 321 1.6 4.8 0.00 0.00 0.00 87 1008.2
20260904093428 17 311 1.6 4.8 0.00 0.00 0.00 87 1008.3
20260904092924 17 311 1.6 4.8 0.00 0.00 0.00 87 1008.2
20260904092423 17 302 1.6 4.8 0.00 0.00 0.00 87 1008.4
20260904091923 17 325 1.6 4.8 0.00 0.00 0.00 87 1008.3
20260904091422 17 323 1.6 4.8 0.00 0.00 0.00 87 1008.4
20260904090920 17 297 1.6 4.8 0.00 0.00 0.00 87 1008.4
20260904090418 17 304 1.6 4.8 0.00 0.00 0.00 87 1008.4
20260904085919 17 306 1.6 4.8 0.00 0.00 0.00 87 1008.4
20260904085419 17 323 1.6 4.8 0.00 0.00 0.00 87 1008.5
20260904084916 17 296 1.6 4.8 0.00 0.00 0.00 86 1008.4
20260904084417 17 330 1.6 4.8 0.00 0.00 0.00 86 1008.4
20260904083914 17 328 1.6 4.8 0.00 0.00 0.00 86 1008.4
20260904083412 17 333 1.6 4.8 0.00 0.00 0.00 86 1008.4
20260904083022 18 21 1.6 8.0 0.00 0.00 0.00 86 1008.3
20260904082957 17 342 1.6 4.8 0.00 0.00 0.00 86 1008.3
20260904081913 18 330 1.6 8.0 0.00 0.00 0.00 85 1008.5
20260904081413 18 296 3.2 8.0 0.00 0.00 0.00 85 1008.5
20260904080911 18 355 3.2 8.0 0.00 0.00 0.00 85 1008.6
20260904080411 18 317 3.2 8.0 0.00 0.00 0.00 85 1008.4
20260904075912 18 14 3.2 8.0 0.00 0.00 0.00 85 1008.4
20260904075406 18 346 3.2 8.0 0.00 0.00 0.00 85 1008.4
20260904075206 18 338 1.6 6.4 0.00 0.00 0.00 85 1008.5
20260904074511 18 333 3.2 6.4 0.00 0.00 0.00 85 1008.4
20260904074450 18 323 1.6 6.4 0.00 0.00 0.00 85 1008.4
20260904073713 18 301 1.6 6.4 0.00 0.00 0.00 85 1008.3
20260904073205 18 302 1.6 4.8 0.00 0.00 0.00 85 1008.2
20260904072407 18 337 1.6 4.8 0.00 0.00 0.00 84 1008.2
20260904072204 18 355 1.6 3.2 0.00 0.00 0.00 84 1008.1
20260904071408 18 336 1.6 3.2 0.00 0.00 0.00 84 1008.1
20260904070903 18 329 1.6 4.8 0.00 0.00 0.00 84 1008.1
20260904070404 18 355 1.6 4.8 0.00 0.00 0.00 84 1008.2
20260904065901 18 350 1.6 4.8 0.00 0.00 0.00 83 1008.1
20260904065402 18 346 1.6 4.8 0.00 0.00 0.00 83 1008.0
20260904065200 18 351 1.6 4.8 0.00 0.00 0.00 83 1008.1
20260904064404 18 343 1.6 4.8 0.00 0.00 0.00 83 1008.1
20260904063902 18 21 0.0 4.8 0.00 0.00 0.00 83 1007.9
20260904063402 18 20 1.6 4.8 0.00 0.00 0.00 82 1008.0
20260904062903 18 5 1.6 4.8 0.00 0.00 0.00 82 1008.0
20260904062401 18 355 1.6 4.8 0.00 0.00 0.00 82 1008.0
20260904061902 18 13 1.6 4.8 0.00 0.00 0.00 82 1007.9
20260904061405 19 13 1.6 4.8 0.00 0.00 0.00 82 1007.9
20260904060903 19 17 1.6 6.4 0.00 0.00 0.00 81 1007.9
20260904060702 19 14 1.6 6.4 0.00 0.00 0.00 81 1007.8
20260904055855 19 9 1.6 6.4 0.00 0.00 0.00 81 1008.0
20260904055348 19 5 1.6 6.4 0.00 0.00 0.00 81 1007.9
20260904054846 19 342 1.6 6.4 0.00 0.00 0.00 80 1008.0
20260904054335 19 15 1.6 6.4 0.00 0.00 0.00 80 1008.1
20260904053837 19 14 1.6 8.0 0.00 0.00 0.00 80 1008.0
20260904053336 19 19 1.6 8.0 0.00 0.00 0.00 79 1007.9
20260904052836 19 15 1.6 8.0 0.00 0.00 0.00 79 1008.0
20260904052333 20 22 1.6 8.0 0.00 0.00 0.00 79 1008.2
20260904051833 20 38 3.2 8.0 0.00 0.00 0.00 79 1008.1
20260904051333 20 13 1.6 8.0 0.00 0.00 0.00 79 1008.1
20260904050830 20 15 1.6 8.0 0.00 0.00 0.00 79 1008.3
20260904050330 20 351 3.2 8.0 0.00 0.00 0.00 78 1008.3
20260904045829 20 17 3.2 8.0 0.00 0.00 0.00 78 1008.3
20260904045330 20 349 3.2 8.0 0.00 0.00 0.00 78 1008.3
20260904044830 20 355 1.6 9.7 0.00 0.00 0.00 78 1008.2
20260904044631 20 32 1.6 9.7 0.00 0.00 0.00 78 1008.3